HAMMERFEST current weather conditions

sailwx.info

Wind from 340 at 12 knots gusting 27

Air temperature -5.0° C
Visibility: greater than 2.7 NM
Dewpoint -9.0° C
Present weather: Light snow.

Last reported at 2020-Jan-22 13:50 UTC.
Time now 2020-Jan-22 14:54 UTC

Location: N 70°40' E 023°40'.
View on Google Maps.

See reports from other nearby stations

  
Tides and Currents Weather Stations Pressure Air Temp Water Temp Dewpoint Dewpoint Depression Visibility Wind Speed Wind Dir Waves Ship Positions
date/time (UTC)wind fromknots sea level pressurealtimeterstation pressurevisibilityair tempwater tempwave heightnotes
2020-Jan-22 13:50 340 12 gusting 27 2.7-5.0 Light snow.
2020-Jan-22 13:20 360 12 gusting 28 4.3-5.0 Light snow.
2020-Jan-22 12:50 4.9-5.0 Snow showers.
2020-Jan-22 12:20 1.0-5.0 Snow showers.
2020-Jan-22 11:50 5.4-4.0 Showers in the vicinity. Light low drifting snow.
2020-Jan-22 11:20 4.3-5.0 Light snow showers. Light low drifting snow.
2020-Jan-22 10:50 350 17 gusting 28 0.5-5.0 Snow showers.
2020-Jan-22 10:20 350 13 gusting 27 5.4-5.0 Showers in the vicinity. Light low drifting snow.
2020-Jan-22 09:50 350 14 gusting 28 3.8-6.0 Showers in the vicinity. Light low drifting snow.
2020-Jan-22 09:20 0.4-5.0 Snow showers. Light low drifting snow.
2020-Jan-22 08:50 350 13 gusting 28 0.3-5.0 Snow showers.
2020-Jan-22 08:21 350 15 0.4-5.0 Snow showers.
2020-Jan-22 08:20 350 14 gusting 26 3.2-5.0 Light snow showers.
2020-Jan-22 07:50 5.4-5.0 Light snow showers. Light low drifting snow.
2020-Jan-22 07:20 340 17 gusting 28 5.4-5.0 Light snow showers. Light low drifting snow.
2020-Jan-22 06:50 5.4-5.0 Showers in the vicinity. Blowing snow.
2020-Jan-22 06:20 1.7-5.0 Light snow showers.
2020-Jan-22 05:50 340 20 3.2-5.0 Light snow showers. Light low drifting snow.
2020-Jan-22 05:20 340 21 3.2-5.0 Light snow showers.
2020-Jan-22 04:50 3.2-4.0 Light snow showers.
2020-Jan-22 03:50 350 12 gusting 25 1.3-5.0 Light snow showers.
2020-Jan-22 03:20 350 14 gusting 27 1.0-4.0 Light snow.
2020-Jan-22 02:50 360 17 2.7-4.0 Light snow showers. Light low drifting snow.
2020-Jan-22 02:20 350 19 4.9-3.0 Light low drifting snow. Light snow showers.
2020-Jan-22 01:50 360 14 gusting 26 3.2-3.0
2020-Jan-22 01:20 350 17 4.3-3.0 Snow grains.
2020-Jan-22 00:50 350 14 gusting 27 5.4-2.0 Showers in the vicinity.
2020-Jan-22 00:20 360 20 5.4-2.0 Showers in the vicinity.
2020-Jan-21 23:50 360 14 gusting 27 4.3-2.0 Showers in the vicinity.
2020-Jan-21 23:20 360 13 4.3-2.0 Light snow showers. Light low drifting snow.
2020-Jan-21 22:50 010 14 1.3-3.0 Snow showers.
2020-Jan-21 22:20 020 13 gusting 25 5.4-2.0 Light snow showers.
2020-Jan-21 21:50 030 18 4.3-2.0 Light snow showers.
2020-Jan-21 21:20 030 11 4.9-2.0 Light snow showers.
2020-Jan-21 20:50 040 12 5.4-1.0 Light snow showers.
2020-Jan-21 20:20 030 14 5.4-1.0 Light snow showers.
2020-Jan-21 19:50 020 18 5.4-1.0 Light snow showers.
2020-Jan-21 19:20 030 14 5.4-1.0 Showers in the vicinity.
2020-Jan-21 18:50 040 18 3.2-1.0 Light rain showers.
2020-Jan-21 18:20 040 18 1.6-1.0 Light snow showers.
2020-Jan-21 17:50 040 17 1.6-1.0 Light snow showers.
2020-Jan-21 17:20 010 7 1.0-0.0 Snow showers.
2020-Jan-21 16:54 340 8 gusting 18 0.3-0.0 Snow showers.
2020-Jan-21 16:50 270 18 gusting 27 2.7 1.0 Light snow showers.
2020-Jan-21 16:20 270 17 gusting 27 1.1-0.0 Snow showers. Small hail/snow pellets.
2020-Jan-21 15:50 240 14 5.4 1.0 Light snow showers.
2020-Jan-21 15:20 270 20 gusting 32 5.4-0.0 Light snow showers.
2020-Jan-21 14:50 270 17 gusting 32 5.4 1.0 Light snow showers. Small hail/snow pellets.
2020-Jan-21 14:20 270 14 gusting 28 5.4-0.0 Showers in the vicinity.
2020-Jan-21 13:50 260 18 5.4 1.0 Showers in the vicinity.
2020-Jan-21 13:20 260 14 gusting 26 5.4 1.0 Showers in the vicinity.
2020-Jan-21 12:50 270 14 5.4-0.0 Showers in the vicinity.
2020-Jan-21 12:20 260 13 5.4 1.0
2020-Jan-21 11:50 270 13 5.4-0.0
2020-Jan-21 11:20 270 15 5.4-0.0 Showers in the vicinity.
2020-Jan-21 10:50 240 12 5.4-0.0 Showers in the vicinity.
2020-Jan-21 10:20 260 13 0.5-1.0 Snow showers.
2020-Jan-21 09:50 240 17 5.4-0.0 Showers in the vicinity.
2020-Jan-21 09:20 240 17 5.4-0.0 Showers in the vicinity.
2020-Jan-21 08:50 240 17 5.4-0.0
2020-Jan-21 08:20 240 14 1.6-0.0 Light snow showers.
2020-Jan-21 07:50 240 14 5.4-0.0
2020-Jan-21 07:20 280 13 5.4-0.0
2020-Jan-21 06:50 270 12 5.4 1.0
2020-Jan-21 06:20 240 9 5.4-0.0
2020-Jan-21 05:50 260 6 5.4-0.0 Showers in the vicinity.
2020-Jan-21 05:20 5.4-0.0 Showers in the vicinity.
2020-Jan-21 04:50 220 2 4.9-0.0 Light rain snow.
2020-Jan-21 04:20 340 5 0.9-0.0 Snow.
2020-Jan-21 03:50 0.2-0.0 Snow.
2020-Jan-21 03:20 240 7 1.2-0.0 Light snow.
2020-Jan-21 02:50 220 6 0.3-0.0 Light snow.
2020-Jan-21 02:20 250 6 1.2-0.0 Light snow.
2020-Jan-21 01:50 270 8 1.2-0.0 Light snow.
2020-Jan-21 01:20 250 20 1.9 1.0 Light snow.
2020-Jan-21 00:50 260 13 5.4 3.0
2020-Jan-21 00:20 260 14 5.4 2.0
2020-Jan-20 23:50 270 17 5.4 2.0
2020-Jan-20 23:20 260 14 gusting 26 3.8 3.0 Light snow showers. Small hail/snow pellets.
2020-Jan-20 22:50 260 17 gusting 29 5.4 3.0
2020-Jan-20 22:20 260 15 gusting 27 5.4 3.0
2020-Jan-20 21:50 260 20 5.4 3.0 Rain showers.
2020-Jan-20 21:20 250 15 gusting 27 5.4 1.0 Light rain.
2020-Jan-20 20:50 240 14 5.4 1.0 Light rain.
2020-Jan-20 20:20 240 19 gusting 28 4.9 2.0 Light drizzle snow.
2020-Jan-20 19:50 240 17 5.4 2.0 Light rain drizzle.
2020-Jan-20 19:20 240 13 5.4 3.0 Light rain.
2020-Jan-20 18:50 240 14 5.4 2.0 Showers in the vicinity.
2020-Jan-20 18:20 250 13 5.4 3.0 Light drizzle.
2020-Jan-20 17:50 240 17 5.4 3.0 Light rain.
2020-Jan-20 17:20 230 13 5.4 3.0 Showers in the vicinity.
2020-Jan-20 16:50 230 17 5.4 3.0 Light rain.
2020-Jan-20 16:20 230 17 5.4 2.0 Showers in the vicinity.
2020-Jan-20 15:50 240 18 5.4 2.0 Light rain.
2020-Jan-20 15:20 240 17 5.4 3.0 Light rain.
2020-Jan-20 14:50 240 15 5.4 4.0 Showers in the vicinity.
2020-Jan-20 14:20 240 13 5.4 3.0 Light rain.